Sigil TimeFrame

99 2020-08-05 10:55:46
NameTime LeftWindow Opens
Old World Drake26d 23:142020-07-09 15:28:00
Animated Captain1d 20:192020-08-03 18:23:00
Thanox, Balancer of Chaos1d 08:052020-08-04 06:37:00
Zertan, The Collector0d 22:502020-08-04 15:52:00
Anvilfist0d 22:162020-08-04 16:26:00
Terrance, Rebel of Rallis0d 18:442020-08-04 19:58:00
Tylos, The Lord Master0d 15:322020-08-04 23:10:00
Kro Shuk, Doomslayer0d 13:002020-08-05 01:42:00
Murderface0d 12:332020-08-05 02:09:00
Keeper of Nature0d 11:142020-08-05 03:28:00
Pinosis0d 10:442020-08-05 03:58:00
Howldroid, Tormentor of the Pit0d 09:362020-08-05 05:06:00
Sigil, Lich of Woe0d 09:272020-08-05 05:15:00
Gnorb0d 08:202020-08-05 06:22:00
Rotborn, Eater of the Dead0d 07:582020-08-05 06:44:00
Lady Chaos, Queen of the Abyss0d 07:582020-08-05 06:44:00
Samatha Dark-Soul0d 07:322020-08-05 07:10:00
Melt Bane, The Forbidden Demon Dragon0d 07:202020-08-05 07:22:00
The Emerald Assassin0d 04:592020-08-05 09:43:00
Crane0d 04:202020-08-05 10:22:00
Ebliss, Fallen Angel of Despair0d 03:192020-08-05 11:23:00
Ancient Magus Tarkin0d 03:102020-08-05 11:32:00
Ganja the Stone Golem0d 02:592020-08-05 11:43:00
Raiyar, the Shadow Master0d 02:562020-08-05 11:46:00
Dreg nor, Keeper of the Infernal Essence0d 01:412020-08-05 13:01:00
Lord Sibannac0d 01:472020-08-05 16:30:00
Ag Nabak the Abomination0d 01:472020-08-05 16:30:00
Sarcrina the Astral Priestess0d 02:302020-08-05 17:13:00
Gregov, Knight of the Woods0d 04:182020-08-05 19:01:00
Tsort0d 05:332020-08-05 20:16:00
Zikkir the Dark Archer0d 06:222020-08-05 21:05:00
Volgan the Living Ironbark0d 07:342020-08-05 22:17:00
Hyrak, Bringer of Nightmares0d 07:342020-08-05 22:17:00
Numerocure, The Black Messenger of Evil0d 07:452020-08-05 22:28:00
Bolkor, the Holy Master0d 09:062020-08-05 23:49:00
Detox0d 09:372020-08-06 00:20:00
Lord Narada0d 10:092020-08-06 00:52:00
Mistress of the Sword0d 11:122020-08-06 01:55:00
Baron Mu, Dark Rider of the Undead0d 11:302020-08-06 02:13:00
Freezebreed, The Frozen Manipulator0d 11:442020-08-06 02:27:00
Garland, The Lord Keeper0d 13:052020-08-06 03:48:00
Synge, The Red Dragon0d 13:062020-08-06 03:49:00
Vitkros, Hydra of the Deep0d 13:132020-08-06 03:56:00
Lord Suka0d 13:202020-08-06 04:03:00
Dexor, Victor of Veldara0d 13:592020-08-06 04:42:00
Viserion, the Necrodragon0d 14:332020-08-06 05:16:00
Crantos, Defender of Ultimation0d 15:212020-08-06 06:04:00
Lord Varan0d 15:252020-08-06 06:08:00
Wanhiroeaz the Devourer0d 15:352020-08-06 06:18:00
Straya, the Underworld Ruler0d 16:052020-08-06 06:48:00
Brutalitar, Lord of the Underworld0d 17:132020-08-06 07:56:00
Gorganus of the Wood0d 17:422020-08-06 08:25:00
Ormsul the Putrid0d 18:052020-08-06 08:48:00
Nayark the Mummified Sorcerer0d 19:222020-08-06 10:05:00
Great Lord Ganeshan0d 20:162020-08-06 10:59:00
Hackerphage, Protector of the Gateway0d 20:412020-08-06 11:24:00
Kretok, Descendant of Nature1d 00:182020-08-06 15:01:00
Traxodon the Plaguebringer1d 01:282020-08-06 16:11:00
Nessam1d 03:212020-08-06 18:04:00
King Ashnar, Lord of the Unliving1d 04:212020-08-06 19:04:00
Rancid, Lord of Thugs1d 04:432020-08-06 19:26:00
Windstrike The Vile1d 06:402020-08-06 21:23:00
Crolvak, the Fire Master1d 07:102020-08-06 21:53:00
Amalgamated Apparition1d 07:232020-08-06 22:06:00
Jorun the Blazing Swordsman1d 08:332020-08-06 23:16:00
Lord Xordam1d 09:052020-08-06 23:48:00
Threk, King of Lords1d 09:362020-08-07 00:19:00
Shadow1d 11:142020-08-07 01:57:00
Smoot the Yeti1d 12:512020-08-07 03:34:00
Lady Ariella1d 13:062020-08-07 03:49:00
Quiver, The Renegade1d 16:322020-08-07 07:15:00
Akkel the Enflamed Warrior1d 17:322020-08-07 08:15:00
Jazzmin, Maiden of Vitality1d 17:482020-08-07 08:31:00
Archdevil Yirkon1d 18:162020-08-07 08:59:00
Bloodchill the Grizzly1d 18:302020-08-07 09:13:00
Anguish1d 18:592020-08-07 09:42:00
Felroc, Overseer of Hellfire2d 01:012020-08-07 15:44:00
Dlanod, the Crazed Chancellor2d 02:022020-08-07 16:45:00
Noxious Slug2d 04:462020-08-07 19:29:00
Karvaz, Lord of Alsayic2d 09:402020-08-08 00:23:00
Nafir, God of Desolation2d 11:062020-08-08 01:49:00
Varsanor, Master of Darkness2d 14:032020-08-08 04:46:00
Q-SEC Commander2d 16:072020-08-08 06:50:00
Xynak, the Arcane Master2d 17:132020-08-08 07:56:00
Emperor Neudeus, Controller of the Universe2d 21:492020-08-08 12:32:00
Sylvanna TorLai2d 22:492020-08-08 13:32:00
Balerion, Dragon of Dread3d 05:282020-08-08 20:11:00
Nar Zhul, Slayer of All3d 05:552020-08-08 20:38:00
Skybrine The Inescapable3d 14:322020-08-09 05:15:00
Grivvek, Protector of the Brood3d 19:592020-08-09 10:42:00
Lacuste of the Swarm4d 01:202020-08-09 16:03:00
Slashbrood, Devourer of the Blackness4d 05:072020-08-09 19:50:00
Esquin, the Kinetic Master4d 10:182020-08-10 01:01:00
Murfax, Beast of the Caves4d 14:502020-08-10 05:33:00
Skarthul the Avenged5d 02:102020-08-10 16:53:00
Beast of Cards30d 05:022020-07-06 09:40:00
Jade Dragonite27d 12:452020-07-09 01:57:00
Rook, Hand of Arkron12d 03:072020-07-24 11:35:00
Shaik, Servant of Arkron12d 03:012020-07-24 11:41:00